Change the Weather History Date:

Friday, October 19, 2012

  Actual Average (KCRP) Record (KCRP)
Temperature  
Mean Temperature 74 °F 74 °F  
Max Temperature 78 °F 84 °F 94 °F (2004)
Min Temperature 69 °F 64 °F 47 °F (1989)
Degree Days  
Heating Degree Days 0 0  
Month to date heating degree days 0  
Since 1 July heating degree days 0  
Cooling Degree Days 8 9  
Month to date cooling degree days 213  
Year to date cooling degree days 3256  
Growing Degree Days 24 (Base 50)    
Moisture  
Dew Point 59 °F    
Average Humidity 57    
Maximum Humidity 68    
Minimum Humidity 44    
Precipitation  
Precipitation 0.00 in 0.13 in 1.79 in (1998)
Month to date precipitation 2.29  
Year to date precipitation 26.61  
Snow  
Snow 0.00 in - - ()
Month to date snowfall  
Since 1 July snowfall  
Since 1 September snowfall  
Snow Depth -    
Sea Level Pressure  
Sea Level Pressure 29.96 in    
Wind  
Wind Speed 13 mph (ENE)    
Max Wind Speed 17 mph    
Max Gust Speed 26 mph    
Visibility 10 miles    
Events      
T = Trace of Precipitation, MM = Missing Value Source: NWS Daily Summary

Daily Weather History Graph

Daily Weather History Graph

Search for Another Location

Airport or City:

Trip Planner

Search our weather history database for the weather conditions in past years. The results will help you decide how hot, cold, wet, or windy it might be!

Date:

Astronomy

Oct. 19, 2012 Rise Set
Actual Time 7:31 AM CDT 6:54 PM CDT
Civil Twilight 7:07 AM CDT 7:18 PM CDT
Nautical Twilight 6:40 AM CDT 7:45 PM CDT
Astronomical Twilight 6:12 AM CDT 8:12 PM CDT
Moon 11:58 AM CDT (10/19) 10:51 PM CDT (10/19)
Length of Visible Light 12h 10m
Length of Day
11h 23m
Waxing Crescent, 24% of the Moon is Illuminated
Oct 19
Waxing Crescent
Oct 21
First Quarter
Oct 29
Full
Nov 6
Last Quarter
Nov 13
New

Hourly Weather History & Observations

Time (CDT) Temp. Dew Point Humidity Pressure Visibility Wind Dir Wind Speed Gust Speed Precip Events Conditions
1:15 AM 75.2 °F 60.8 °F 61% 29.92 in 10.0 mi NNE 12.7 mph 17.3 mph N/A   Overcast
1:35 AM 73.4 °F 60.8 °F 65% 29.93 in 10.0 mi NNE 12.7 mph - N/A   Overcast
1:55 AM 73.4 °F 60.8 °F 65% 29.93 in 10.0 mi NNE 15.0 mph 19.6 mph N/A   Overcast
2:15 AM 73.4 °F 60.8 °F 65% 29.93 in 10.0 mi NNE 16.1 mph 26.5 mph N/A   Overcast
2:35 AM 73.4 °F 59.0 °F 61% 29.94 in 10.0 mi NNE 17.3 mph - N/A   Overcast
2:55 AM 71.6 °F 59.0 °F 64% 29.93 in 10.0 mi NNE 15.0 mph - N/A   Mostly Cloudy
3:15 AM 71.6 °F 59.0 °F 64% 29.93 in 10.0 mi NNE 15.0 mph - N/A   Mostly Cloudy
3:35 AM 71.6 °F 57.2 °F 60% 29.93 in 10.0 mi NNE 12.7 mph - N/A   Overcast
3:55 AM 71.6 °F 57.2 °F 60% 29.93 in 10.0 mi NE 12.7 mph 19.6 mph N/A   Overcast
4:15 AM 71.6 °F 57.2 °F 60% 29.93 in 10.0 mi NNE 13.8 mph 19.6 mph N/A   Overcast
4:35 AM 71.6 °F 57.2 °F 60% 29.93 in 10.0 mi NNE 15.0 mph 19.6 mph N/A   Mostly Cloudy
4:55 AM 71.6 °F 57.2 °F 60% 29.93 in 10.0 mi NNE 10.4 mph - N/A   Overcast
5:15 AM 71.6 °F 57.2 °F 60% 29.94 in 10.0 mi NNE 12.7 mph - N/A   Mostly Cloudy
5:35 AM 71.6 °F 57.2 °F 60% 29.94 in 10.0 mi NNE 11.5 mph - N/A   Mostly Cloudy
5:55 AM 71.6 °F 57.2 °F 60% 29.95 in 10.0 mi NNE 13.8 mph 18.4 mph N/A   Scattered Clouds
6:15 AM 71.6 °F 55.4 °F 57% 29.95 in 10.0 mi NNE 15.0 mph - N/A   Mostly Cloudy
6:35 AM 71.6 °F 57.2 °F 60% 29.96 in 10.0 mi NNE 17.3 mph - N/A   Overcast
6:55 AM 69.8 °F 57.2 °F 64% 29.96 in 10.0 mi NE 11.5 mph - N/A   Scattered Clouds
7:15 AM 69.8 °F 59.0 °F 68% 29.96 in 10.0 mi NE 11.5 mph - N/A   Clear
7:35 AM 69.8 °F 57.2 °F 64% 29.96 in 10.0 mi NNE 9.2 mph - N/A   Scattered Clouds
7:55 AM 71.6 °F 57.2 °F 60% 29.96 in 10.0 mi NE 10.4 mph - N/A   Overcast
8:15 AM 73.4 °F 59.0 °F 61% 29.97 in 10.0 mi ENE 11.5 mph - N/A   Scattered Clouds
8:35 AM 73.4 °F 57.2 °F 57% 29.98 in 10.0 mi ENE 13.8 mph - N/A   Clear
8:55 AM 75.2 °F 59.0 °F 57% 29.99 in 10.0 mi NE 11.5 mph - N/A   Clear
9:15 AM 77.0 °F 60.8 °F 57% 29.99 in 10.0 mi NNE 11.5 mph - N/A   Clear
9:35 AM 75.2 °F 59.0 °F 57% 30.00 in 10.0 mi NNE 16.1 mph 19.6 mph N/A   Clear
9:55 AM 75.2 °F 60.8 °F 61% 30.01 in 10.0 mi NNE 16.1 mph 21.9 mph N/A   Clear
10:15 AM 77.0 °F 60.8 °F 57% 30.01 in 10.0 mi NE 11.5 mph - N/A   Clear
10:35 AM 77.0 °F 60.8 °F 57% 30.02 in 10.0 mi ENE 15.0 mph 20.7 mph N/A   Clear
10:55 AM 77.0 °F 62.6 °F 61% 30.02 in 10.0 mi ENE 13.8 mph 20.7 mph N/A   Clear
11:15 AM 77.0 °F 62.6 °F 61% 30.03 in 10.0 mi ENE 15.0 mph 19.6 mph N/A   Clear
11:35 AM 77.0 °F 62.6 °F 61% 30.03 in 10.0 mi NE 13.8 mph 21.9 mph N/A   Scattered Clouds
11:55 AM 77.0 °F 62.6 °F 61% 30.02 in 10.0 mi NE 16.1 mph 21.9 mph N/A   Scattered Clouds
12:15 PM 77.0 °F 62.6 °F 61% 30.03 in 10.0 mi ENE 12.7 mph - N/A   Scattered Clouds
12:35 PM 78.8 °F 62.6 °F 57% 30.02 in 10.0 mi ENE 15.0 mph - N/A   Scattered Clouds
12:55 PM 78.8 °F 62.6 °F 57% 30.01 in 10.0 mi ENE 15.0 mph 18.4 mph N/A   Scattered Clouds
1:15 PM 78.8 °F 62.6 °F 57% 30.01 in 10.0 mi East 13.8 mph 18.4 mph N/A   Clear
1:35 PM 78.8 °F 62.6 °F 57% 29.99 in 10.0 mi ENE 13.8 mph - N/A   Clear
1:55 PM 78.8 °F 62.6 °F 57% 29.99 in 10.0 mi ENE 12.7 mph 18.4 mph N/A   Clear
2:15 PM 78.8 °F 62.6 °F 57% 29.98 in 10.0 mi East 13.8 mph - N/A   Clear
2:35 PM 78.8 °F 60.8 °F 54% 29.97 in 10.0 mi NE 12.7 mph 17.3 mph N/A   Clear
2:55 PM 78.8 °F 60.8 °F 54% 29.97 in 10.0 mi ENE 13.8 mph 19.6 mph N/A   Scattered Clouds
3:15 PM 78.8 °F 60.8 °F 54% 29.96 in 10.0 mi East 12.7 mph - N/A   Clear
3:35 PM 78.8 °F 60.8 °F 54% 29.96 in 10.0 mi ENE 12.7 mph - N/A   Clear
3:55 PM 78.8 °F 59.0 °F 51% 29.95 in 10.0 mi East 11.5 mph 17.3 mph N/A   Clear
4:15 PM 78.8 °F 55.4 °F 44% 29.95 in 10.0 mi East 11.5 mph - N/A   Clear
4:35 PM 78.8 °F 55.4 °F 44% 29.95 in 10.0 mi East 10.4 mph - N/A   Clear
4:55 PM 78.8 °F 55.4 °F 44% 29.95 in 10.0 mi East 8.1 mph 16.1 mph N/A   Clear
5:15 PM 78.8 °F 55.4 °F 44% 29.95 in 10.0 mi East 10.4 mph - N/A   Scattered Clouds
5:35 PM 78.8 °F 55.4 °F 44% 29.95 in 10.0 mi East 9.2 mph - N/A   Scattered Clouds
5:55 PM 78.8 °F 57.2 °F 47% 29.95 in 10.0 mi East 8.1 mph - N/A   Clear
6:15 PM 77.0 °F 57.2 °F 50% 29.94 in 10.0 mi East 8.1 mph - N/A   Clear
6:35 PM 77.0 °F 55.4 °F 47% 29.94 in 10.0 mi East 8.1 mph - N/A   Clear
6:55 PM 77.0 °F 57.2 °F 50% 29.94 in 10.0 mi East 8.1 mph - N/A   Clear
7:15 PM 75.2 °F 57.2 °F 53% 29.94 in 10.0 mi East 9.2 mph - N/A   Clear
7:35 PM 75.2 °F 57.2 °F 53% 29.95 in 10.0 mi East 8.1 mph - N/A   Clear
7:55 PM 75.2 °F 59.0 °F 57% 29.95 in 10.0 mi East 9.2 mph - N/A   Clear
8:15 PM 77.0 °F 59.0 °F 54% 29.95 in 10.0 mi ESE 9.2 mph - N/A   Clear
8:35 PM 77.0 °F 59.0 °F 54% 29.95 in 10.0 mi ESE 9.2 mph - N/A   Clear
8:55 PM 77.0 °F 60.8 °F 57% 29.95 in 10.0 mi ESE 9.2 mph - N/A   Clear
9:15 PM 77.0 °F 60.8 °F 57% 29.95 in 10.0 mi ESE 10.4 mph - N/A   Clear
9:35 PM 77.0 °F 60.8 °F 57% 29.95 in 10.0 mi SE 10.4 mph - N/A   Clear
9:55 PM 77.0 °F 60.8 °F 57% 29.95 in 10.0 mi ESE 10.4 mph - N/A   Clear
10:15 PM 77.0 °F 60.8 °F 57% 29.95 in 10.0 mi ESE 9.2 mph - N/A   Clear
10:35 PM 77.0 °F 62.6 °F 61% 29.95 in 10.0 mi ESE 9.2 mph - N/A   Clear
10:55 PM 77.0 °F 62.6 °F 61% 29.95 in 10.0 mi ESE 8.1 mph - N/A   Clear
11:15 PM 77.0 °F 62.6 °F 61% 29.95 in 10.0 mi ESE 10.4 mph - N/A   Clear
11:35 PM 77.0 °F 62.6 °F 61% 29.94 in 10.0 mi SE 9.2 mph - N/A   Clear
11:55 PM 77.0 °F 62.6 °F 61% 29.94 in 10.0 mi SE 10.4 mph - N/A   Clear